Content
SEND FEEDBACK

Daily
Averages
Monthly
Summary
United Kingdom

LONDON, ENGLAND


Home > Europe > United Kingdom > England
Elevation: 61 meters     Latitude: 51 09N     Longitude: 000 11W

WEATHER
 
SELECT A DAY
Number of Records: 294,441;   Date Range: 7/1/96 - 9/14/14
 
SHARE

PRINT THIS DATA

[ ← Previous Day ]
WEATHER ALMANAC - 5 FEBRUARY, 2013
[ Next Day → ]
[ °F ]   °C
Weather ElementAverageHighLow
Temperature4.2 °C6 °C (12:50 am)2 °C (6:20 am)
Dewpoint-0.9 °C3 °C (1:20 am)-4 °C (1:50 pm)
Humidity70.4 %87 % (3:50 am)53 % (1:50 pm)
Barometer1000 hPa1006.1 hPa (12:50 am)994.2 hPa (9:20 pm)
Wind Speed25.6 km/h37 km/h (1:50 am)
Wind Gust57.5 km/h (1:50 am)
Weather ElementAverage
Visibility9.8 km
Wind DirectionWSW (255.5 °)

Weather ElementTotal
Precipitation---
Heating Degree Days14.3 (Base 18.3)
Averaged from 47 records on 5 February, 2013
WEATHER CONDITIONS BREAKOUT
WIND DIRECTION BREAKOUT
WEATHER BY HOUR - 5 FEBRUARY, 2013
[ °F ]   °C
Local TimeTemperatureDewpointHumidityBarometerVisibilityWind DirectionWind SpeedGust SpeedPrecipitationEventsConditions
12:50 AM6 °C2 °C76 %1006.1 hPa10 kmSW (230°)27.8 km/hPartly Cloudy
1:20 AM6 °C3 °C81 %1006.1 hPa10 kmWSW (240°)25.9 km/hRainLight Rain
1:50 AM6 °C2 °C76 %1005.1 hPa10 kmWSW (250°)37 km/h57.5 km/hRainLight Rain
2:20 AM4 °C1 °C81 %1006.1 hPa5 kmWest (270°)35.2 km/hRainLight Rain
2:50 AM4 °C1 °C81 %1005.1 hPa10 kmWest (260°)27.8 km/hRainLight Rain
3:20 AM4 °C1 °C81 %1004.1 hPa10 kmWSW (250°)22.2 km/hScattered Clouds
3:50 AM3 °C1 °C87 %1004.1 hPa10 kmWSW (250°)18.5 km/hPartly Cloudy
4:20 AM3 °C0 °C81 %1004.1 hPa10 kmWSW (250°)20.4 km/hPartly Cloudy
4:50 AM3 °C-1 °C75 %1004.1 hPaWSW (250°)22.2 km/hClear
5:20 AM3 °C-2 °C70 %1004.1 hPaWest (260°)24.1 km/hClear
5:50 AM3 °C-2 °C70 %1004.1 hPaWSW (250°)27.8 km/hClear
6:20 AM2 °C-3 °C70 %1003 hPaWest (260°)24.1 km/hClear
6:50 AM2 °C-3 °C70 %1003 hPaWest (260°)25.9 km/hClear
7:20 AM2 °C-3 °C70 %1003 hPaWSW (250°)20.4 km/hClear
7:50 AM2 °C-3 °C70 %1003 hPaWSW (240°)14.8 km/hClear
8:20 AM2 °C-2 °C75 %1003 hPaWSW (240°)16.7 km/hClear
8:50 AM2 °C-1 °C81 %1003 hPa10 kmWSW (240°)14.8 km/hPartly Cloudy
9:20 AM2 °C-1 °C81 %1002 hPa10 kmWSW (250°)18.5 km/hPartly Cloudy
9:50 AM3 °C-1 °C75 %1002 hPa10 kmWSW (250°)16.7 km/hPartly Cloudy
10:20 AM4 °C-1 °C70 %1002 hPa10 kmWest (260°)22.2 km/hScattered Clouds
10:50 AM4 °C-1 °C70 %1002 hPa10 kmWest (260°)33.3 km/hScattered Clouds
11:20 AM4 °C-1 °C70 %1001 hPa10 kmWest (270°)25.9 km/hMostly Cloudy
11:50 AM4 °C-2 °C65 %1001 hPa10 kmWest (270°)25.9 km/hScattered Clouds
12:20 PM5 °C-2 °C61 %1000 hPa10 kmWest (260°)27.8 km/hPartly Cloudy
12:50 PM5 °C-2 °C61 %1000 hPa10 kmWest (260°)31.5 km/hPartly Cloudy
1:20 PM5 °C-3 °C57 %1000 hPa10 kmWest (260°)33.3 km/hPartly Cloudy
1:50 PM5 °C-4 °C53 %1000 hPa10 kmWest (270°)31.5 km/hPartly Cloudy
2:20 PM5 °C-4 °C53 %999 hPa10 kmWest (280°)33.3 km/hScattered Clouds
2:50 PM5 °C-4 °C53 %999 hPa10 kmWest (270°)27.8 km/hScattered Clouds
3:20 PM5 °C-4 °C53 %999 hPa10 kmWest (270°)33.3 km/hPartly Cloudy
3:50 PM5 °C-3 °C57 %998 hPa10 kmWest (260°)29.6 km/hPartly Cloudy
4:20 PM5 °C-4 °C53 %998 hPa10 kmWest (260°)27.8 km/hPartly Cloudy
4:50 PM4 °C-3 °C61 %997 hPa10 kmWSW (250°)22.2 km/hPartly Cloudy
5:20 PM4 °C-3 °C61 %997 hPaWSW (250°)20.4 km/hClear
5:50 PM4 °C-3 °C61 %997 hPaWSW (240°)16.7 km/hClear
6:20 PM5 °C-2 °C61 %996.3 hPa10 kmSW (230°)22.2 km/hScattered Clouds
6:50 PM4 °C-1 °C70 %996.3 hPa10 kmWSW (240°)24.1 km/hRainLight Rain
7:20 PM4 °C0 °C75 %996.3 hPa10 kmWSW (240°)24.1 km/hMostly Cloudy
7:50 PM5 °C1 °C76 %995.3 hPa10 kmWSW (250°)29.6 km/hMostly Cloudy
8:20 PM5 °C1 °C76 %995.3 hPa10 kmWSW (240°)24.1 km/hMostly Cloudy
8:50 PM5 °C1 °C76 %995.3 hPa10 kmWSW (240°)22.2 km/hMostly Cloudy
9:20 PM5 °C2 °C81 %994.2 hPa10 kmWSW (240°)20.4 km/hMostly Cloudy
9:50 PM5 °C2 °C81 %994.2 hPa10 kmWest (260°)25.9 km/hMostly Cloudy
10:20 PM6 °C2 °C76 %994.2 hPa10 kmWest (270°)31.5 km/hMostly Cloudy
10:50 PM6 °C2 °C76 %994.2 hPa10 kmWest (280°)31.5 km/hScattered Clouds
11:20 PM6 °C2 °C76 %994.2 hPa10 kmWNW (290°)31.5 km/hScattered Clouds
11:50 PM6 °C2 °C76 %994.2 hPa10 kmWNW (290°)27.8 km/hScattered Clouds
Hourly data recorded from EGKK, located 0 kilometers away from London, England







STORIES FROM OUR PARTNERS